Home > Time Zones > World Clock > Weather > Oman > Muscat > Past weeks

Flag for Oman Weather past 2 weeks in Muscat, Oman

Now
90 °F

Clear.


Feels Like: 89 °F
Forecast: 84 / 88 °F
Wind: 8 mph from Southeast

Location: International Airport

Current Time: Apr 19, 2015 at 8:27:29 PM

Latest Report: Apr 19, 2015 at 7:50 PM


Visibility: 4 mi

Pressure: 29.77 "Hg

Humidity: 36%

Dew point: 59 °F

Location of MuscatLocation

Historic Weather in Muscat — Graph

°F

Muscat temperature yesterday

Maximum temperature yesterday: 102 °F (at 3:50 PM)
Minimum temperature yesterday: 82 °F (at 3:50 AM)
Average temperature yesterday: 94 °F

Past Weeks' High & Low Weather Summary

 TemperatureHumidityPressure
High102 °F (Apr 12, 9:50 AM)94% (Apr 10, 3:50 AM)30.01 "Hg (Apr 10, 3:50 AM)
Low75 °F (Apr 5, 2:50 AM)9% (Apr 18, 4:50 PM)29.65 "Hg (Apr 5, 1:50 AM)
Average87 °F47%29.81 "Hg
* Reported Apr 4 6:50 PM — Apr 19 6:50 PM, Muscat, Weather by CustomWeather, © 2015

Note: Actual official high and low records may vary slightly from our data, if they occured in-between our weather recording intervals... More about our weather records

Advertising

Muscat weather history for previous 24 hours

 ConditionsComfort  
Time TempWeatherWind HumidityBarometerVisibility
6:50 PM
Sun, Apr 19
90 °FClear.7 mph38%29.77 "Hg4 mi
5:50 PM88 °FClear.5 mph52%29.74 "Hg4 mi
4:50 PM90 °FClear.8 mph46%29.74 "Hg4 mi
3:50 PM90 °FClear.6 mph49%29.71 "Hg4 mi
2:50 PM91 °FClear.10 mph46%29.71 "Hg4 mi
1:50 PM95 °FClear.9 mph25%29.71 "Hg4 mi
12:50 PM93 °FClear.16 mph47%29.74 "Hg4 mi
11:50 AM95 °FClear.14 mph32%29.77 "Hg4 mi
10:50 AM100 °FClear.10 mph18%29.77 "Hg5 mi
9:50 AM97 °FClear.10 mph25%29.80 "Hg5 mi
8:50 AM95 °FClear.6 mph25%29.80 "Hg5 mi
7:50 AM91 °FClear.3 mph36%29.77 "Hg5 mi
6:50 AM86 °FClear.2 mph52%29.77 "Hg5 mi
5:50 AM84 °FClear.3 mph55%29.74 "Hg5 mi
4:50 AM86 °FClear.6 mph55%29.74 "Hg10 mi
3:50 AM84 °FClear.5 mph51%29.74 "Hg10 mi
2:50 AM88 °FClear.3 mph19%29.71 "Hg10 mi
1:50 AM88 °FClear.No wind19%29.74 "Hg10 mi
12:50 AM91 °FClear.2 mph16%29.74 "Hg10 mi
11:50 PM
Sat, Apr 18
91 °FClear.1 mph15%29.77 "Hg10 mi
10:50 PM93 °FClear.No wind15%29.77 "Hg10 mi
9:50 PM95 °FClear.5 mph14%29.77 "Hg6 mi
8:50 PM95 °FClear.2 mph15%29.74 "Hg6 mi
Weather by CustomWeather, © 2015

See weather overviewHow to use our weather pages